FW8640 Weather Reports


time (UTC)temp
C
wind
direction
speed
KPH
gust
KPH
rain 1hr
cm
rain 24hr
cm
rain mn
cm
humidity
%
barometer
mb
20260504151019 19 203 1.6 8.0 0.00 0.00 0.00 52 1017.4
20260504141018 20 203 1.6 9.7 0.00 0.00 0.00 39 1017.6
20260504081020 16 45 1.6 8.0 0.00 0.00 0.00 42 1020.7
20260504050019 12 45 1.6 11.3 0.00 0.05 0.00 50 1020.5
20260504045019 12 0.0 0.0 0.00 0.05 0.00 48 1020.4
20260504044020 12 45 1.6 9.7 0.00 0.05 0.00 49 1020.3
20260504043019 11 45 1.6 8.0 0.00 0.05 0.00 51 1020.4
20260504042018 11 45 4.8 11.3 0.00 0.05 0.00 52 1020.4
20260504041018 11 45 4.8 14.5 0.00 0.05 0.00 54 1020.3
20260504040020 10 45 6.4 11.3 0.00 0.05 0.00 56 1020.3
20260504035103 10 68 3.2 11.3 0.00 0.05 0.00 59 1020.1
20260504034019 10 68 3.2 14.5 0.00 0.05 0.00 60 1020.0
20260504033020 10 68 4.8 12.9 0.00 0.05 0.00 63 1020.0
20260504032040 10 0.0 0.0 0.00 0.05 0.00 65 1019.9
20260504031018 10 0.0 0.0 0.00 0.05 0.00 65 1020.0
20260504030020 10 0.0 0.0 0.00 0.05 0.00 66 1020.0
20260504025020 10 0.0 0.0 0.00 0.05 0.00 66 1020.0
20260504024018 10 0.0 0.0 0.00 0.05 0.00 66 1020.2
20260504023041 9 0.0 0.0 0.00 0.05 0.00 66 1020.2
20260504022020 9 0.0 0.0 0.00 0.05 0.00 65 1020.1
20260504021020 9 0.0 0.0 0.00 0.05 0.00 64 1020.0
20260504020019 10 0.0 0.0 0.00 0.05 0.00 64 1020.0
20260504015018 10 0.0 0.0 0.00 0.05 0.00 64 1020.1
20260504014018 10 0.0 0.0 0.00 0.05 0.00 66 1019.9
20260504013018 9 0.0 0.0 0.00 0.05 0.00 65 1019.9
20260504012018 10 0.0 0.0 0.00 0.05 0.00 64 1019.8
20260504011019 -17 0.0 0.0 0.00 0.05 0.00
20260504010053 10 0.0 0.0 0.00 0.05 0.00 59 1019.4
20260504005550 10 0 1.6 1.6 0.00 0.05 0.00 59 1019.6
20260504005019 10 0 1.6 3.2 0.00 0.05 0.00 59 1019.7
20260504004019 10 0 1.6 4.8 0.00 0.05 0.00 58 1019.6
20260504003018 11 0.0 3.2 0.00 0.05 0.00 57 1019.3
20260504002041 11 0.0 3.2 0.00 0.05 0.00 57 1019.5
20260504001017 11 0 1.6 4.8 0.00 0.05 0.00 56 1019.5
20260504000019 11 0.0 1.6 0.00 0.05 0.00 55 1019.6
20260503235019 11 0.0 1.6 0.00 0.05 0.00 54 1019.5
20260503234019 12 0.0 0.0 0.00 0.05 0.00 53 1019.5
20260503233019 12 0.0 1.6 0.00 0.05 0.00 53 1019.7
20260503232018 12 0.0 1.6 0.00 0.05 0.00 52 1019.7
20260503231018 12 0.0 0.0 0.00 0.05 0.00 52 1019.8
20260503230019 13 0.0 1.6 0.00 0.05 0.00 51 1019.8
20260503225018 13 0.0 1.6 0.00 0.05 0.00 51 1019.7
20260503224017 13 0.0 4.8 0.00 0.05 0.00 51 1019.7
20260503223041 13 0 1.6 4.8 0.00 0.05 0.00 51 1019.8
20260503222018 13 0 3.2 8.0 0.00 0.05 0.00 51 1019.9
20260503221040 13 0 1.6 6.4 0.00 0.05 0.00 49 1019.8
20260503220039 13 0 1.6 3.2 0.00 0.05 0.00 46 1019.6
20260503215017 13 0.0 4.8 0.00 0.05 0.00 45 1019.7
20260503214018 13 0.0 0.0 0.00 0.05 0.00 45 1019.7
20260503213040 14 0.0 3.2 0.00 0.05 0.00 42 1019.6
20260503212018 14 0.0 0.0 0.00 0.05 0.00 43 1019.5
20260503211018 14 0.0 3.2 0.00 0.05 0.00 41 1019.5
20260503210017 14 0.0 3.2 0.00 0.05 0.05 42 1019.4
20260503205041 14 0.0 3.2 0.00 0.05 0.05 42 1019.3
20260503204019 14 0.0 3.2 0.00 0.05 0.05 40 1019.5
20260503203019 14 0 3.2 8.0 0.00 0.05 0.05 39 1019.4
20260503202018 14 0 4.8 16.1 0.00 0.05 0.05 39 1019.4
20260503201043 14 0 4.8 14.5 0.00 0.05 0.05 40 1019.2
20260503200040 14 0 3.2 8.0 0.00 0.05 0.05 41 1019.2
20260503195019 14 0 3.2 9.7 0.00 0.05 0.05 41 1019.2
20260503194018 15 0.0 4.8 0.00 0.05 0.05 41 1019.2
20260503193019 15 0.0 4.8 0.00 0.05 0.05 41 1019.2
20260503192020 15 0 1.6 6.4 0.00 0.05 0.05 41 1019.2
20260503191041 15 0.0 3.2 0.00 0.05 0.05 40 1019.2
20260503190018 15 0 1.6 8.0 0.00 0.05 0.05 40 1019.2
20260503185018 15 0 4.8 9.7 0.00 0.05 0.05 39 1019.2
20260503184040 16 0 1.6 8.0 0.00 0.05 0.05 39 1019.0
20260503183018 16 0 3.2 8.0 0.00 0.05 0.05 37 1018.7
20260503182020 16 0 3.2 14.5 0.00 0.05 0.05 37 1018.5
20260503181018 16 0 3.2 12.9 0.00 0.05 0.05 36 1018.3
20260503180018 16 0 3.2 8.0 0.00 0.05 0.05 36 1018.2
20260503175019 17 0 3.2 6.4 0.00 0.05 0.05 36 1018.3
20260503174018 17 0 1.6 6.4 0.00 0.05 0.05 36 1018.2
20260503173018 17 0 1.6 3.2 0.00 0.05 0.05 36 1018.2
20260503172020 17 0 1.6 3.2 0.00 0.05 0.05 35 1018.0
20260503171020 18 0 1.6 6.4 0.00 0.05 0.05 34 1017.9